Tarboro, NC

5:18 AM EDT on August 24, 2017 (GMT -0400)
Tarboro-edgecombe

Weather History for KETC - November, 2013

Change the Weather History Date:

Thursday, November 21, 2013

  Actual Average Record
Temperature  
Mean Temperature 54 °F -  
Max Temperature 67 °F 63 °F 81 °F (1988)
Min Temperature 41 °F 36 °F 18 °F (1951)
Degree Days  
Heating Degree Days 11    
Growing Degree Days 4 (Base 50)    
Moisture  
Dew Point 46 °F    
Average Humidity 78    
Maximum Humidity 95    
Minimum Humidity 58    
Precipitation  
Precipitation 0.00 in - - ()
Sea Level Pressure  
Sea Level Pressure 30.43 in    
Wind  
Wind Speed 3 mph (NE)    
Max Wind Speed 8 mph    
Max Gust Speed -    
Visibility 9 miles    
Events Fog    
Averages and records for this station are not official NWS values.
T = Trace of Precipitation, MM = Missing Value Source: NWS Daily Summary

Daily Weather History Graph

Daily Weather History Graph

Search for Another Location

Airport or City:

Trip Planner

Search our weather history database for the weather conditions in past years. The results will help you decide how hot, cold, wet, or windy it might be!

Date:

Astronomy

Nov. 21, 2013 Rise Set
Actual Time 6:52 AM EST 4:59 PM EST
Civil Twilight 6:25 AM EST 5:26 PM EST
Nautical Twilight 5:53 AM EST 5:58 PM EST
Astronomical Twilight 5:23 AM EST 6:28 PM EST
Moon 8:33 PM EST (11/21) 9:58 AM EST (11/21)
Length of Visible Light 11h 01m
Length of Day
10h 06m
Waning Gibbous, 85% of the Moon is Illuminated
Nov 21
Waning Gibbous
Nov 25
Last Quarter
Dec 2
New
Dec 9
First Quarter
Dec 17
Full

Hourly Weather History & Observations

Time (EST) Temp. Windchill Dew Point Humidity Pressure Visibility Wind Dir Wind Speed Gust Speed Precip Events Conditions
12:15 AM 45.5 °F 43.2 °F 38.3 °F 76% 30.44 in 10.0 mi NNE 4.6 mph - N/A   Mostly Cloudy
12:35 AM 45.1 °F - 38.5 °F 77% 30.44 in 10.0 mi Calm Calm - N/A   Mostly Cloudy
12:55 AM 44.8 °F 43.3 °F 38.5 °F 79% 30.44 in 10.0 mi North 3.5 mph - N/A   Scattered Clouds
1:15 AM 44.8 °F 43.3 °F 38.7 °F 79% 30.44 in 10.0 mi North 3.5 mph - N/A   Mostly Cloudy
1:35 AM 45.0 °F - 38.7 °F 79% 30.45 in 10.0 mi Calm Calm - N/A   Mostly Cloudy
1:55 AM 44.8 °F 43.3 °F 38.8 °F 80% 30.45 in 10.0 mi North 3.5 mph - N/A   Mostly Cloudy
2:15 AM 45.3 °F 43.0 °F 39.2 °F 79% 30.45 in 10.0 mi NNW 4.6 mph - N/A   Overcast
2:35 AM 45.0 °F 43.5 °F 39.0 °F 80% 30.45 in 10.0 mi North 3.5 mph - N/A   Mostly Cloudy
2:55 AM 44.4 °F 42.9 °F 38.8 °F 81% 30.45 in 10.0 mi North 3.5 mph - N/A   Mostly Cloudy
3:15 AM 44.2 °F - 39.0 °F 82% 30.45 in 10.0 mi Calm Calm - N/A   Mostly Cloudy
3:35 AM 44.6 °F 43.1 °F 39.2 °F 81% 30.45 in 10.0 mi North 3.5 mph - N/A   Overcast
3:55 AM 45.0 °F 41.8 °F 39.4 °F 81% 30.45 in 10.0 mi North 5.8 mph - N/A   Overcast
4:15 AM 45.0 °F 43.5 °F 39.6 °F 81% 30.45 in 10.0 mi North 3.5 mph - N/A   Overcast
4:35 AM 44.4 °F - 39.2 °F 82% 30.45 in 10.0 mi Calm Calm - N/A   Mostly Cloudy
4:55 AM 44.1 °F - 39.4 °F 84% 30.46 in 10.0 mi Calm Calm - N/A   Overcast
5:15 AM 44.1 °F 41.5 °F 39.4 °F 84% 30.45 in 10.0 mi NNE 4.6 mph - N/A   Overcast
5:35 AM 43.5 °F 41.9 °F 39.0 °F 84% 30.45 in 10.0 mi North 3.5 mph - N/A   Scattered Clouds
5:55 AM 42.8 °F 40.1 °F 38.5 °F 85% 30.46 in 10.0 mi NNW 4.6 mph - N/A   Clear
6:15 AM 42.3 °F - 38.3 °F 86% 30.46 in 10.0 mi Calm Calm - N/A   Clear
6:35 AM 41.5 °F 38.6 °F 37.9 °F 87% 30.46 in 10.0 mi North 4.6 mph - N/A   Clear
6:55 AM 41.4 °F - 37.9 °F 88% 30.47 in 10.0 mi Calm Calm - N/A   Clear
7:15 AM 41.4 °F 39.4 °F 37.9 °F 88% 30.46 in 10.0 mi NNE 3.5 mph - N/A   Clear
7:35 AM 42.1 °F 39.2 °F 38.5 °F 87% 30.46 in 10.0 mi NE 4.6 mph - N/A   Clear
7:55 AM 43.5 °F 40.1 °F 39.2 °F 85% 30.48 in 10.0 mi West 5.8 mph - N/A   Clear
8:15 AM 44.8 °F 42.4 °F 39.7 °F 82% 30.48 in 10.0 mi NW 4.6 mph - N/A   Clear
8:35 AM 46.4 °F 44.3 °F 40.3 °F 79% 30.48 in 10.0 mi NNW 4.6 mph - N/A   Clear
8:55 AM 47.8 °F - 41.0 °F 77% 30.49 in 10.0 mi NNW 6.9 mph - N/A   Clear
9:15 AM 49.3 °F - 41.5 °F 75% 30.49 in 10.0 mi NNW 8.1 mph - N/A   Clear
9:35 AM 50.9 °F - 42.3 °F 72% 30.49 in 10.0 mi North 8.1 mph - N/A   Clear
9:55 AM 52.5 °F - 43.2 °F 70% 30.48 in 10.0 mi NNE 8.1 mph - N/A   Clear
10:15 AM 54.9 °F - 44.4 °F 68% 30.48 in 10.0 mi NE 5.8 mph - N/A   Clear
10:35 AM 57.0 °F - 45.5 °F 65% 30.47 in 10.0 mi NE 5.8 mph - N/A   Clear
10:55 AM 57.9 °F - 46.0 °F 65% 30.48 in 10.0 mi Calm Calm - N/A   Scattered Clouds
11:15 AM 59.5 °F - 46.9 °F 63% 30.46 in 10.0 mi NE 3.5 mph - N/A   Scattered Clouds
11:35 AM 61.0 °F - 47.7 °F 62% 30.46 in 10.0 mi NNE 3.5 mph - N/A   Scattered Clouds
11:55 AM 61.9 °F - 48.0 °F 60% 30.45 in 10.0 mi ENE 4.6 mph - N/A   Scattered Clouds
12:15 PM 63.1 °F - 48.9 °F 60% 30.44 in 10.0 mi East 5.8 mph - N/A   Clear
12:35 PM 63.9 °F - 49.5 °F 59% 30.43 in 10.0 mi Calm Calm - N/A   Clear
12:55 PM 65.1 °F - 50.0 °F 58% 30.42 in 10.0 mi Calm Calm - N/A   Clear
1:15 PM 64.9 °F - 50.4 °F 59% 30.43 in 10.0 mi East 6.9 mph - N/A   Mostly Cloudy
1:35 PM 65.5 °F - 51.1 °F 60% 30.41 in 10.0 mi Calm Calm - N/A   Scattered Clouds
1:55 PM 65.7 °F - 51.3 °F 60% 30.41 in 10.0 mi Calm Calm - N/A   Scattered Clouds
2:15 PM 66.6 °F - 51.6 °F 59% 30.40 in 10.0 mi Calm Calm - N/A   Mostly Cloudy
2:35 PM 67.3 °F - 52.0 °F 58% 30.39 in 10.0 mi Calm Calm - N/A   Mostly Cloudy
2:55 PM 66.6 °F - 52.2 °F 60% 30.39 in 10.0 mi SSE 5.8 mph - N/A   Scattered Clouds
3:15 PM 66.2 °F - 52.3 °F 61% 30.39 in 10.0 mi ESE 5.8 mph - N/A   Mostly Cloudy
3:35 PM 66.4 °F - 52.0 °F 60% 30.39 in 10.0 mi SE 3.5 mph - N/A   Scattered Clouds
3:55 PM 65.1 °F - 52.2 °F 63% 30.40 in 10.0 mi ESE 3.5 mph - N/A   Clear
4:15 PM 65.3 °F - 52.2 °F 62% 30.40 in 10.0 mi Calm Calm - N/A   Clear
4:35 PM 64.4 °F - 52.2 °F 64% 30.39 in 10.0 mi ESE 3.5 mph - N/A   Scattered Clouds
4:55 PM 63.1 °F - 52.2 °F 67% 30.40 in 10.0 mi Calm Calm - N/A   Mostly Cloudy
5:15 PM 61.9 °F - 52.3 °F 71% 30.41 in 10.0 mi ESE 3.5 mph - N/A   Overcast
5:35 PM 61.2 °F - 52.7 °F 74% 30.41 in 10.0 mi Calm Calm - N/A   Overcast
5:55 PM 60.3 °F - 52.7 °F 76% 30.41 in 10.0 mi ESE 3.5 mph - N/A   Scattered Clouds
6:15 PM 59.0 °F - 52.5 °F 79% 30.41 in 10.0 mi Calm Calm - N/A   Scattered Clouds
6:35 PM 57.4 °F - 52.0 °F 82% 30.41 in 10.0 mi East 3.5 mph - N/A   Clear
6:55 PM 56.5 °F - 52.0 °F 85% 30.41 in 10.0 mi Calm Calm - N/A   Clear
7:15 PM 55.4 °F - 51.4 °F 87% 30.42 in 10.0 mi Calm Calm - N/A   Clear
7:35 PM 52.9 °F - 49.8 °F 89% 30.42 in 10.0 mi Calm Calm - N/A   Clear
7:55 PM 49.8 °F - 47.7 °F 92% 30.42 in 7.0 mi Calm Calm - N/A   Clear
8:15 PM 48.6 °F - 46.8 °F 93% 30.41 in 5.0 mi Calm Calm - N/A   Clear
8:35 PM 48.2 °F - 46.8 °F 95% 30.41 in 7.0 mi East 6.9 mph - N/A   Clear
8:55 PM 51.4 °F - 50.2 °F 95% 30.40 in 10.0 mi Calm Calm - N/A   Clear
9:15 PM 52.0 °F - 50.2 °F 94% 30.42 in 10.0 mi West 3.5 mph - N/A   Clear
9:35 PM 49.5 °F - 47.7 °F 94% 30.42 in 10.0 mi Calm Calm - N/A   Clear
9:55 PM 48.6 °F - 46.9 °F 94% 30.42 in 5.0 mi Calm Calm - N/A   Mostly Cloudy
10:15 PM 48.4 °F - 46.9 °F 95% 30.41 in 7.0 mi Calm Calm - N/A   Overcast
10:35 PM 50.0 °F - 48.6 °F 95% 30.40 in 10.0 mi East 6.9 mph - N/A   Mostly Cloudy
10:55 PM 52.3 °F - 51.1 °F 95% 30.40 in 0.8 mi Calm Calm - N/A   Overcast
11:15 PM 53.1 °F - 51.8 °F 95% 30.40 in 0.2 mi SSE 3.5 mph - N/A Fog Fog
11:35 PM 53.1 °F - 51.8 °F 95% 30.40 in 0.2 mi Calm Calm - N/A Fog Fog
11:55 PM 53.2 °F - 52.0 °F 95% 30.39 in 0.2 mi Calm Calm - N/A Fog Fog